Tracking 28792 objects as of 25-Apr-2024
HD Live streaming from Space Station
objects crossing your sky now

ARIANE 2 DEB

Track ARIANE 2 DEB now!
10-day predictions


NORAD ID: 33584
Int'l Code: 1989-027E
Perigee: 424.0 km
Apogee: 21,718.7 km
Inclination: 6.0 °
Period: 382.1 minutes
Semi major axis: 17442 km
RCS: 0.3666 m2 (medium)
Launch date: April 2, 1989
Source: France (FR)
Launch site: FRENCH GUIANA (FRGUI)

Note: This is SATELLITE DEBRIS
Your satellite tracking list
Your tracking list is empty




NASA's NSSDC Master Catalog

Two Line Element Set (TLE):
1 33584U 89027E   24115.08718310  .00002363  00000-0  31366-2 0  9995
2 33584   5.9855 280.6228 6104330 255.2881  33.2870  3.76873216331657
Source of the keplerian elements: AFSPC